Weather in Weifang

China     36°41′36″N   119°06′28″E
temp.,
°C
wind,
m/s
gust,
m/s
humid.,
%
clouds,
%
prec.,
mm/h
press.,
hPa
HPBL,
m
17 april, sat
sat1723:00+12s1137100 0.1 101913
02:00+9wnw34422 0.1 101849
05:00+6w47476 0.0 1019113
08:00+10wnw712290 0.0 1022768
11:00+15nw913170 0.0 10223000
14:00+16nw812170 0.0 10203101
17:00+16nw610250 0.0 10202424
20:00+10w22350 0.0 102115
18 april, sun
sun1823:00+9wsw33310 0.0 102123
02:00+8wsw33300 0.0 102132
05:00+7wnw35310 0.0 102153
08:00+13wnw35300 0.0 1022238
11:00+19wnw45200 0.0 10211103
14:00+22wnw34160 0.0 10181937
17:00+22wsw14210 0.0 10151244
20:00+15sw33300 0.0 101637
19 april, mon
mon1923:00+13sw49350 0.0 1016131
02:00+12sw411400 0.0 1015171
05:00+11ssw48445 0.0 1015125
08:00+17sw46375 0.0 1016296
11:00+23ssw342315 0.0 10151024
14:00+26ssw341868 0.0 10131834
17:00+25ssw2427100 0.0 1012113
20:00+19ssw41036100 0.0 1014192
20 april, tue
tue2023:00+16ssw374361 0.0 1015105
02:00+15s3447100 0.0 101554
05:00+14s2251100 0.0 101627
08:00+19s344187 0.0 1018216
11:00+24sse452668 0.0 10181101
14:00+26sse67224 0.0 10171910
17:00+23sse692633 0.0 1017740
20:00+16sse51229100 0.0 1019312
21 april, wed
wed2123:00+12sse51137100 0.0 1019219
02:00+11sse51143100 0.0 1019245
05:00+11se51248100 0.0 1019278
08:00+14sse61245100 0.0 1020473
11:00+18s71129100 0.0 1019959
14:00+15sse41039100 0.0 1018652
17:00+15se4841100 0.0 1016454
20:00+14se41148100 0.0 1017560